Location: Augirein
(42.9320°N, 0.9181°E)
Time: 17:14:30
(UTC+00:00)

Cosmos 2292 Rocket - Pass Details

Date: 20 June 2021
Orbit: 381 x 1445 km, 83.0° (Epoch: 04 August)

Event Time Altitude Azimuth Distance (km) Brightness Sun altitude
Exits shadow 02:10:04 36° 153° (SSE) 638 3.4 -17.0°
Maximum altitude 02:10:59 55° 95° (E) 470 3.1 -16.9°
Drops below altitude 10° 02:13:54 10° 16° (NNE) 1,417 6.6 -16.6°
Sets 02:15:55 0° 12° (NNE) 2,311 7.9 -16.4°
